FREGAT DEB, 45641

Orbit data source: Space-Track

FREGAT DEB, 45641 is space debris in LEO originally from a launch on Mon, 18 Jul 2011 UTC launched from the Tyuratam Missile And Space Complex (TTMTR). Debris objects in space refer to the collection of defunct objects orbiting the Earth. Examples of debris include non-operational satellites, rocket bodies, and fragments generated from explosions, collisions, or faulty payload assembly.

Loading next visibility...
Identifier
45641, 2011-037AH
Orbit
LEO
Country
Flag of CISCIS
Related business
Manufacturer
Lavochkin
Mission
Spacecraft
Bus & Motor
Unknown
Mass
Unknown
Launch date (UTC)
2011-07-18 (14 years ago)
Launch vehicle
Unknown
Launch site
Tyuratam Missile And Space Complex (TTMTR)
Object type
Payload
Rocket body
Debris
Shape & HBR
Unknown shape, 0.3 m
Radar Cross Section
Medium (>0.1 m² and <1 m²)

Expand to show TLE details & history
Last TLE update: 7 hours ago

TLE from 7 hours ago
0 FREGAT DEB
1 45641U 11037AH  25302.52439831  .00644953  00000-0  10918-1 0  9990
2 45641  51.6241  58.1906 0312535 209.6669 148.6256 15.10462480252953
Epoch: 2025-10-29T12:35Z
TLE epoch observation values (Epoch: 2025-10-29T12:35:08.013Z)
Latitude
Longitude
-168.68908°
Altitude
721.728 km
Speed
7.394 km/s
True Right ascension
03h 52m 45s
True Declination
0° 00' 00"
Sunlit
Object was in full shadow at epoch
Visualization orbit readout
Latitude
Unknown
Longitude
Unknown
Altitude
Unknown
Speed
Unknown
Apparent Right ascension
Unknown
Apparent Declination
Unknown
Sunlit
N/A
Visualization observer readout
Local Sidereal Time
15:16:32
Azimuth
Unknown
Elevation
Unknown
Doppler factor
Unknown
Orbital elements
Apogee altitude
751.36 km
Perigee altitude
319.222 km
Semi-major axis
6,913.428 km
Eccentricity
0.03125
Inclination
51.6241°
RAAN
58.1906°
Arg. of periapsis
209.6669°
True anomaly
150.42962°
Mean anomaly
148.6256°
Eccentric anomaly
149.53354°
Mean motion
3.77575 °/min
Orbital period
95.35 mins
BSTAR
0.010918
Loading maneuver chart data...
Computing Atmospheric mass density...
Loading historical data...
Loading historical data...
Loading historical data...
Loading historical data...
Loading historical data...
Loading historical data...
Loading historical data...

Documentation

Showing up to 5 results
|